ROMMA est une association bénévole à but non lucratif. Votre soutien est indispensable : ADHERER à ROMMA ou FAIRE un DON

Le Versoud - (38, Isère)

Vallée du Grésivaudan (220 m)   Longitude: 05° 51' 44" E   Latitude: 45° 13' 06" N Station partenaire n°6
 

Détail journalier du     <<     >>

Température Precipitation Humidité Pression Vent Dir Rafale Dir. rafale Ensol.
Heure (°C) (mm) (%) (hPa) (km/h) (km/h) (min)
01:00 16.0081102100---0
02:00 14.9083102100---0
03:00 14.5083102100---0
04:00 13.4087102100---0
05:00 12.9088102100---0
06:00 12.3090102200---0
07:00 12.4090102200---0
08:00 15.4081102200---55
09:00 18.3068102200---60
10:00 20.7059102102N60
11:00 22.3052102102N60
12:00 24.4046102002N60
13:00 24.9046102002NNE60
14:00 27.4040101903NE60
15:00 28.2039101803NE60
16:00 28.40381017013NO60
17:00 29.8036101703NO60
18:00 29.9035101608N60
19:00 29.304010161N15NNE60
20:00 28.40421016010N60
21:00 25.1055101602NNE15
22:00 22.6059101700---0
23:00 20.9072101706NNE0
minuit 19.3078101800---0

Graphique du 01-06-2019

 

Serveur OMMA